Weather History for St. Cloud, MN

Change the Weather History Date:

Tuesday, January 17, 2012

  Actual Average Record
Temperature  
Mean Temperature 6 °F 11 °F  
Max Temperature 14 °F 21 °F 43 °F (1923)
Min Temperature -3 °F 1 °F -35 °F (1982)
Degree Days  
Heating Degree Days 59 54  
Month to date heating degree days 705 911  
Since 1 July heating degree days 3532 4358  
Cooling Degree Days 0 0  
Month to date cooling degree days 0 0  
Year to date cooling degree days 0 0  
Moisture  
Dew Point -1 °F    
Average Humidity 66    
Maximum Humidity 79    
Minimum Humidity 52    
Precipitation  
Precipitation T in 0.02 in 0.69 in (1996)
Month to date precipitation 0.11 0.39  
Year to date precipitation 0.11 0.39  
Snow  
Snow T in 0.30 in 10.00 in (1996)
Month to date snowfall 1.3 5.0  
Since 1 July snowfall 8.0 23.6  
Snow Depth 1.00 in    
Sea Level Pressure  
Sea Level Pressure 30.22 in    
Wind  
Wind Speed 11 mph (NW)    
Max Wind Speed 20 mph    
Max Gust Speed 26 mph    
Visibility 9 miles    
Events Snow    
T = Trace of Precipitation, MM = Missing Value Source: NWS Daily Summary

Daily Weather History Graph

Daily Weather History Graph

Search for Another Location

Airport:

Trip Planner

Search our weather history database for the weather conditions in past years. The results will help you decide how hot, cold, wet, or windy it might be!

Date:

Astronomy

Jan. 17, 2012 Rise Set
Actual Time 7:51 AM CST 5:01 PM CST
Civil Twilight 7:18 AM CST 5:34 PM CST
Nautical Twilight 6:42 AM CST 6:10 PM CST
Astronomical Twilight 6:06 AM CST 6:46 PM CST
Moon 2:10 AM CST (1/17) 11:55 AM CST (1/17)
Length of Visible Light 10h 15m
Length of Day
9h 09m
Waning Crescent, 35% of the Moon is Illuminated
Jan 17
Waning Crescent
Jan 23
New
Jan 30
First Quarter
Feb 7
Full
Feb 14
Last Quarter

Hourly Weather History & Observations

Time (CST) Temp. Windchill Dew Point Humidity Pressure Visibility Wind Dir Wind Speed Gust Speed Precip Events Conditions
12:53 AM 12.2 °F -1.8 °F 6.8 °F 79% 30.01 in 8.0 mi North 11.5 mph - N/A   Mostly Cloudy
1:07 AM 12.2 °F -3.1 °F 6.8 °F 79% 30.01 in 9.0 mi North 13.8 mph 20.7 mph N/A   Scattered Clouds
1:53 AM 12.0 °F -2.0 °F 5.0 °F 73% 30.10 in 10.0 mi NNW 11.5 mph - N/A   Mostly Cloudy
2:53 AM 12.0 °F -2.7 °F 5.0 °F 73% 30.13 in 10.0 mi NNW 12.7 mph - N/A   Overcast
3:53 AM 10.4 °F -4.1 °F 5.0 °F 79% 30.04 in 3.0 mi NNW 11.5 mph 21.9 mph N/A Snow Light Snow
4:05 AM 10.4 °F -4.1 °F 5.0 °F 79% 30.04 in 2.5 mi NNW 11.5 mph 19.6 mph 0.00 in Snow Light Snow
4:41 AM 10.4 °F -4.8 °F 3.2 °F 73% 30.06 in 5.0 mi NNW 12.7 mph 20.7 mph 0.00 in Snow Light Snow
4:53 AM 10.0 °F -7.1 °F 1.9 °F 70% 30.16 in 10.0 mi NNW 16.1 mph 23.0 mph 0.00 in   Overcast
5:53 AM 8.6 °F -6.3 °F 1.4 °F 73% 30.08 in 10.0 mi NNW 11.5 mph 21.9 mph N/A   Overcast
6:53 AM 7.0 °F -10.4 °F -0.0 °F 73% 30.20 in 10.0 mi NNW 15.0 mph 24.2 mph N/A   Overcast
7:53 AM 6.1 °F -12.2 °F -0.9 °F 73% 30.23 in 10.0 mi NNW 16.1 mph 20.7 mph N/A   Mostly Cloudy
8:53 AM 5.0 °F -10.8 °F -2.0 °F 73% 30.27 in 10.0 mi NNW 11.5 mph - N/A   Clear
9:53 AM 5.0 °F -12.3 °F -4.0 °F 66% 30.28 in 10.0 mi NNW 13.8 mph - N/A   Clear
10:53 AM 6.1 °F -11.6 °F -4.0 °F 63% 30.30 in 10.0 mi NW 15.0 mph 20.7 mph N/A   Clear
11:53 AM 8.1 °F -10.2 °F -4.0 °F 58% 30.30 in 10.0 mi NW 17.3 mph - N/A   Clear
12:53 PM 10.0 °F -5.9 °F -4.0 °F 53% 30.28 in 10.0 mi NNW 13.8 mph 21.9 mph N/A   Clear
1:53 PM 10.4 °F -7.2 °F -2.2 °F 57% 30.18 in 10.0 mi NW 17.3 mph - N/A   Clear
2:53 PM 10.9 °F -5.4 °F -2.9 °F 54% 30.28 in 10.0 mi NW 15.0 mph - N/A   Clear
3:53 PM 10.0 °F -4.5 °F -2.9 °F 56% 30.30 in 10.0 mi WNW 11.5 mph - N/A   Clear
4:53 PM 7.0 °F -7.5 °F -4.0 °F 61% 30.33 in 10.0 mi NW 10.4 mph - N/A   Clear
5:53 PM 3.9 °F -9.4 °F -5.1 °F 66% 30.34 in 10.0 mi NW 8.1 mph - N/A   Clear
6:53 PM 1.9 °F -7.6 °F -6.0 °F 69% 30.35 in 10.0 mi WNW 4.6 mph - N/A   Clear
7:53 PM 1.9 °F -9.2 °F -6.0 °F 69% 30.36 in 10.0 mi West 5.8 mph - N/A   Clear
8:53 PM 1.0 °F -6.7 °F -6.0 °F 72% 30.35 in 10.0 mi West 3.5 mph - N/A   Clear
9:53 PM 1.0 °F - -6.0 °F 72% 30.33 in 10.0 mi Calm Calm - N/A   Clear
10:53 PM -2.0 °F - -7.1 °F 79% 30.33 in 10.0 mi Calm Calm - N/A   Clear
11:53 PM - - - N/A% 30.19 in - North - - N/A   Unknown